Miscellaneous Local Product
Issued by NWS Hastings, NE

Home | Current Version | Previous Version | Text Only | Print | Product List | Glossary Off
Versions: 1 2 3 4 5 6 7 8 9 10 11 12 13 14 15 16 17 18 19 20 21 22 23 24 25 26 27 28 29 30 31 32 33 34 35 36 37 38 39 40 41 42 43 44 45 46 47 48 49 50

000
AXUS43 KGID 050302
MISGRI

GID CWA HOURLY WEATHER ROUNDUP
NATIONAL WEATHER SERVICE HASTINGS NE
1000 PM CDT WED MAY 04 2016

NOTE: "FAIR" INDICATES FEW OR NO CLOUDS BELOW 12,000 FEET WITH NO
SIGNIFICANT WEATHER AND/OR OBSTRUCTIONS TO VISIBILITY.

...SOUTH CENTRAL NEBRASKA...

CITY           SKY/WX    TMP DP  RH WIND       PRES   REMARKS
GRAND ISLAND   CLEAR     54  38  54 NW5       30.07R
HASTINGS       CLEAR     53  37  54 CALM      30.06R
KEARNEY        CLEAR     59  36  41 CALM      30.08R
ORD            CLEAR     50  42  74 CALM      30.06R
YORK           CLEAR     55  36  47 N3        30.05R
AURORA         CLEAR     56  34  43 N3        30.06R
LEXINGTON      CLEAR     60  37  42 E5        30.08R
HOLDREGE       CLEAR     57  41  55 E3        30.07S
HEBRON         CLEAR     55  37  51 CALM      30.04R

...NEBRASKA PANHANDLE...

CITY           SKY/WX    TMP DP  RH WIND       PRES   REMARKS
CHADRON        CLEAR     59  43  55 SE12      30.02S
ALLIANCE       CLEAR     53  41  63 SE8       30.08R
SCOTTSBLUFF    CLEAR     63  43  48 SE9       30.08R
SIDNEY         CLEAR     51  43  74 SE7       30.13R

...WESTERN AND NORTH CENTRAL NEBRASKA...

CITY           SKY/WX    TMP DP  RH WIND       PRES   REMARKS
VALENTINE      CLEAR     56  40  55 E6        30.06R
AINSWORTH      CLEAR     56  41  56 E6        30.08R
ONEILL         CLEAR     57  39  50 CALM      30.06S
BROKEN BOW     CLEAR     50  42  74 CALM      30.07R
IMPERIAL       CLEAR     60  42  51 SE6       30.09R
NORTH PLATTE   CLEAR     53  40  61 E3        30.08R
MCCOOK         CLEAR     59  43  55 E5        30.08R

...EASTERN NEBRASKA...

CITY           SKY/WX    TMP DP  RH WIND       PRES   REMARKS
NORFOLK        CLEAR     53  37  54 NW3       30.04R
SO SIOUX CITY  CLEAR     53  40  61 W7        30.01R
TEKAMAH        CLEAR     55  42  61 NW6       30.01R
COLUMBUS       CLEAR     54  34  47 N3        30.05R
ALBION         CLEAR     48  38  68 NW3       30.05S
OMAHA EPPLEY   CLEAR     58  44  60 CALM      30.00R
MILLARD        CLEAR     58  40  52 CALM      30.01R
LINCOLN        CLEAR     57  38  48 MISG      30.04R
NEBRASKA CITY  CLEAR     59  36  41 CALM      30.01R
BEATRICE       CLEAR     51  39  63 N3        30.03R
FALLS CITY     CLEAR     57  38  48 NW3       30.00R

...NORTHERN KANSAS...

CITY           SKY/WX    TMP DP  RH WIND       PRES   REMARKS
GOODLAND       CLEAR     55  44  66 S7        30.11R
HILL CITY      CLEAR     54  44  69 CALM      30.08R
NORTON         CLEAR     57  39  51 SE3       30.07S
PHILLIPSBURG   CLEAR     61  39  44 N5        30.07R
SMITH CENTER   CLEAR     54  37  54 NE5       30.07R
BELOIT         CLEAR     52  39  62 CALM      30.04R
HAYS           CLEAR     59  43  55 CALM      30.07R
RUSSELL        CLEAR     62  38  40 E5        30.05R
CONCORDIA      CLEAR     57  34  41 NW7       30.04R
SALINA         CLEAR     58  45  62 W3        30.05R
TOPEKA         CLEAR     57  42  57 CALM      30.01R



USA.gov is the U.S. government's official web portal to all federal, state and local government web resources and services.